Showing default

O3B FM10, 40348

Orbit data source: Space-Track

O3B FM10, 40348 is a payload satellite owned by O3B (JE) that was launched on Thu, 18 Dec 2014 UTC via a SOYUZ-ST-B launch vehicle from the French Guiana (FRGUI). Payloads include a variety of satellites, spacecraft, and rockets equipped with specific instruments for various scientific and technological missions. These include communications satellites like Starlink; space stations such as the ISS; scientific satellites like the Hubble; Earth observation satellites from companies like Planet Labs, Umbra, and HawkEye 360; GPS; miniature CubeSats for education and research; and military/defense satellites.

Loading next visibility...
O3B FM10 details
Identifier
40348, 2014-083A
Orbit
Active
Last TLE update2 days ago
Origin
Flag of JEO3B (JE / O3B)
ManufacturerThales Alenia
MissionOperational Commercial Communications
Bus & MotorPRISMA?, LS-400 AOCS?
Mass700 kg wet, ~500 kg dry
Launch date (UTC)
2014-12-18 (10 years ago)
Launch vehicle
SOYUZ-ST-B
Launch site
French Guiana (FRGUI)
Object type
Payload
Rocket body
Debris
Shape & HBRTrap Box + 2 Pan, 12 m
Radar Cross Section21.980 m², Large (>1 m²)

Expand to show TLE details & history

TLE from 2 days ago
0 O3B FM10
1 40348U 14083A   24359.05454022 -.00000016  00000-0  00000-0 0  9998
2 40348   0.0527 358.6004 0002711 276.8415  84.5280  5.00115731182860
Epoch: 2024-12-24T01:18Z
Definitive object data (Epoch: 2024-12-24T01:18:32.275Z)
Latitude0.00157°
Longitude-112.70262°
Altitude8,063.995 km
Speed5.254 km/s
True Right ascension00h 00m 00s
True Declination0° 00' 06"
Sunlit
Object was in daylight at TLE epoch
Visualization TLE readout
Latitude0.03926°
Longitude-72.5378°
Altitude8,066.516 km
Speed5.254 km/s
Apparent Right ascension01h 45m 20s
Apparent Declination-13° 03' 49"
Sunlit
Object is in daylight
Visualization observer readout
Local Sidereal Time10:46:06
Azimuth291.476° WNW
Elevation-42.461°
Doppler factor1
Orbital elements
Apogee altitude8,072.861 km
Perigee altitude8,065.028 km
Semi-major axis14,447.081 km
Eccentricity0.0002711
Inclination0.0527°
RAAN358.6004°
Arg. of periapsis276.8415°
True anomaly84.55893°
Mean anomaly84.528°
Eccentric anomaly84.54346°
Mean motion1.24989 °/min
BSTARUnknown
Orbital period288.02 mins
Loading maneuver chart data...
Loading historical data...
Loading historical data...
Loading historical data...
Loading historical data...
Loading historical data...
Loading historical data...
Loading historical data...
Other satellites on launch #83 in the year 2014 (2014-12-18 UTC)

O3B FM10 Visibility forecast

Observer location: undefined°, undefined

Span
Click to sort rows by Start time (UTC) header in descending order
Start Az.
Max El. time (UTC)
Max El. Az.
Max El.
End time (UTC)
End Az.
79 mins2024-12-26 12:46:45.871Z232.08° WSW2024-12-26 13:25:45.871Z180.654° SSW24.354°2024-12-26 14:05:45.871Z127.803° SE
78 mins2024-12-26 18:47:45.871Z231.021° WSW2024-12-26 19:25:45.871Z180.601° SSW24.31°2024-12-26 20:05:45.871Z127.739° SE
78 mins2024-12-27 00:47:45.871Z230.99° WSW2024-12-27 01:25:45.871Z180.558° SSW24.384°2024-12-27 02:05:45.871Z127.689° SE
78 mins2024-12-27 06:47:45.871Z231.051° WSW2024-12-27 07:25:45.871Z180.61° SSW24.427°2024-12-27 08:05:45.871Z127.753° SE
|